Showing default

HULIANWANG DIGUI-150, 67526

Orbit data source: Space-Track

HULIANWANG DIGUI-150, 67526 is a payload satellite owned by Zhongguo Xingwang (CN) in LEO that was launched on Mon, 19 Jan 2026 UTC via a CHANG ZHENG 12 launch vehicle from the Wenchang Satellite Launch Center (WSC). Payload-class satellites include a variety of spacecraft equipped with specific instruments for various scientific and technological missions. These include communications satellites like Starlink; space stations such as the ISS; scientific satellites like the Hubble; Earth observation satellites from companies like Planet Labs, Umbra, and HawkEye 360; GPS; miniature CubeSats for education and research; and military/defense satellites.

Loading next visibility...
Identifier
67526, 2026-013E
Orbit
LEO
Country
Flag of CNCN / PRC
Related business
Manufacturer
YINNT
Mission
Operational Civil Communications
Bus & Motor
XINGWANG Y, Unknown motor
Mass
~800 kg wet, ~800 kg dry
Launch date (UTC)
2026-01-19 (5 months ago)
Launch vehicle
CHANG ZHENG 12
Launch site
Wenchang Satellite Launch Center (WSC)
Object type
Payload
Rocket body
Debris
Shape & HBR
Box + 2 Pan, 2.4 m
Radar Cross Section
5.935 m², Large (>1 m²)

Expand to show TLE details & history
Last TLE update: 6 hours ago

TLE from 6 hours ago
0 HULIANWANG DIGUI-150
1 67526U 26013E   26163.83202022 -.00000077  00000-0  10158-3 0  9998
2 67526  50.0058  11.1057 0001131  99.2189 260.8812 13.29329428 19498
Epoch: 2026-06-12T19:58Z
TLE epoch observation values (Epoch: 2026-06-12T19:58:06.547Z)
Latitude
0.00003°
Longitude
170.42264°
Altitude
1,149.935 km
Speed
7.279 km/s
True Right ascension
00h 44m 25s
True Declination
0° 00' 00"
Sunlit
Object was in daylight at epoch
Visualization orbit readout
Latitude
Unknown
Longitude
Unknown
Altitude
Unknown
Speed
Unknown
Apparent Right ascension
Unknown
Apparent Declination
Unknown
Sunlit
N/A
Visualization observer readout
Local Sidereal Time
12:49:04
Azimuth
Unknown
Elevation
Unknown
Doppler factor
Unknown
Orbital elements
Apogee altitude
1,150.85 km
Perigee altitude
1,149.147 km
Semi-major axis
7,528.135 km
Eccentricity
0.00011
Inclination
50.0058°
RAAN
11.1057°
Arg. of periapsis
99.2189°
True anomaly
260.8684°
Mean anomaly
260.8812°
Eccentric anomaly
260.8748°
Mean motion
3.32286 °/min
Orbital period
108.34 mins
BSTAR
0.00010158
Loading maneuver chart data...
Computing Atmospheric mass density...
Loading historical data...
Loading historical data...
Loading historical data...
Loading historical data...
Loading historical data...
Loading historical data...
Loading historical data...

Documentation

Showing up to 5 results
|